sat.trackr.live / text

‹ back to catalog

STARLINK-11508 [DTC]

NORAD 62515 · 2025-004E

PAYLOAD ACTIVE UNKNOWN

§ Identity

Operator
Country
US
Launch date
2025-01-08
Launch site
AFETR
Launch vehicle
Mass (kg)
RCS (m²)

Purposes: comms

External: N2YO · Heavens-Above · Gunter

§ Orbital elements

Epoch: 2026-05-25T04:48:19.052928Z

Period
91.67 min
Inclination
43.0008°
Eccentricity
0.0002449
Mean motion
15.70889502 rev/d
Perigee alt
354.7 km
Apogee alt
358.0 km
Semi-major
6,734.5 km
B*
2.0662e-3
RAAN
329.3712°
Arg perigee
277.0107°
Mean anomaly
83.0482°
Rev number
7,924

§ Raw data

STARLINK-11508 [DTC]1 62515U 25004E   26145.20022052  .00274177  00000+0  20662-2 0  99962 62515  43.0008 329.3712 0002449 277.0107  83.0482 15.70889502 79248

JSON: /api/v1/satellites/62515 · /tle

For live sub-satellite position, see the globe view (requires WebGL).

§ Visibility from observer

Set your observer location to see the next 7 days of passes ≥ 10°. The values pass through the URL so the page stays shareable.

No JS? Fill the form by hand. The geolocation button needs JavaScript.